This is the latest recevied weather packets stored in our database for station/object K8MUD. If no packets are shown the sender has not sent any weather packets the latest 1 day(s).
| Time | Temp. | Humidity | Pressure | Rain* | Wind** | Luminosity | Snow |
|---|---|---|---|---|---|---|---|
| 1836274665 | 16.67° C | 82% | 1021 hPa | 0 mm | 0 m/s | - | - |
| 1836274515 | 16.67° C | 82% | 1021 hPa | 0 mm | 0 m/s | - | - |
| 1836274365 | 16.67° C | 82% | 1021 hPa | 0 mm | 0 m/s | - | - |
| 1836274215 | 16.67° C | 82% | 1021.1 hPa | 0 mm | 0 m/s | - | - |
| 1836274064 | 16.67° C | 82% | 1021 hPa | 0 mm | 0 m/s | - | - |
| 1778034405 | 12.22° C | 53% | 1007.8 hPa | 0 mm | 1.34 m/s, 274° | - | - |
| 1778034105 | 12.22° C | 54% | 1007.8 hPa | 0 mm | 1.34 m/s, 270° | - | - |
| 1778033805 | 12.22° C | 53% | 1007.7 hPa | 0 mm | 1.34 m/s, 267° | - | - |
| 1778033505 | 12.22° C | 54% | 1007.7 hPa | 0 mm | 0.89 m/s, 262° | - | - |
| 1778033205 | 12.22° C | 55% | 1007.5 hPa | 0 mm | 0.89 m/s, 263° | - | - |
| 1778032905 | 12.22° C | 54% | 1007.4 hPa | 0 mm | 0.89 m/s, 266° | - | - |
| 1778032605 | 12.22° C | 56% | 1007.4 hPa | 0 mm | 0.89 m/s, 269° | - | - |
| 1778032305 | 12.22° C | 56% | 1007.4 hPa | 0 mm | 0.89 m/s, 271° | - | - |
| 1778032005 | 12.22° C | 56% | 1007.3 hPa | 0 mm | 0.89 m/s, 271° | - | - |
| 1778031705 | 12.22° C | 58% | 1007.3 hPa | 0 mm | 0.45 m/s, 271° | - | - |
| 1778031405 | 12.22° C | 57% | 1007.3 hPa | 0 mm | 0.89 m/s, 271° | - | - |
| 1778031105 | 12.22° C | 57% | 1007.3 hPa | 0 mm | 0.89 m/s, 271° | - | - |
| 1778030805 | 12.78° C | 58% | 1007.2 hPa | 0 mm | 0.45 m/s, 271° | - | - |
| 1778030505 | 12.78° C | 57% | 1007.2 hPa | 0 mm | 0.89 m/s, 271° | - | - |
| 1778030205 | 12.78° C | 56% | 1007.2 hPa | 0 mm | 0.89 m/s, 271° | - | - |
| 1778029905 | 12.78° C | 57% | 1007.3 hPa | 0 mm | 1.34 m/s, 278° | - | - |
| 1778029605 | 12.78° C | 56% | 1007.3 hPa | 0 mm | 1.34 m/s, 282° | - | - |
| 1778029305 | 12.78° C | 57% | 1007.4 hPa | 0 mm | 1.34 m/s, 273° | - | - |
| 1778029004 | 12.78° C | 57% | 1007.2 hPa | 0 mm | 1.34 m/s, 268° | - | - |
| 1778028704 | 12.78° C | 58% | 1007.3 hPa | 0 mm | 1.34 m/s, 266° | - | - |
* Rain latest hour (hover to see other rain measurements)
** Current wind speed in m/s (hover to see current wind gust speed)